2023/07/17 00:00:00, 0.1,20.9
2023/07/17 00:10:00, 0.1,20.7
2023/07/17 00:20:00, 0.1,20.7
2023/07/17 00:30:00, 0.1,20.4
2023/07/17 00:40:00, 0.1,20.4
2023/07/17 00:50:00, 0.1,20.4
2023/07/17 01:00:00, 0.1,20.3
2023/07/17 01:10:00, 0.1,20.2
2023/07/17 01:20:00, 0.1,20.3
2023/07/17 01:30:00, 0.1,19.8
2023/07/17 01:40:00, 0.1,20.0
2023/07/17 01:50:00, 0.1,20.0
2023/07/17 02:00:00, 0.1,20.0
2023/07/17 02:10:00, 0.1,20.1
2023/07/17 02:20:00, 0.2,19.8
2023/07/17 02:30:00, 0.2,20.1
2023/07/17 02:40:00, 0.2,20.2
2023/07/17 02:50:00, 0.2,20.2
2023/07/17 03:00:00, 0.2,20.2
2023/07/17 03:10:00, 0.2,20.1
2023/07/17 03:20:00, 0.2,20.0
2023/07/17 03:30:00, 0.2,20.1
2023/07/17 03:40:00, 0.2,20.0
2023/07/17 03:50:00, 0.2,19.9
2023/07/17 04:00:00, 0.2,19.5
2023/07/17 04:10:00, 0.2,19.8
2023/07/17 04:20:00, 0.2,19.6
2023/07/17 04:30:00, 0.2,19.5
2023/07/17 04:40:00, 0.2,19.5
2023/07/17 04:50:00, 0.2,19.5
2023/07/17 05:00:00, 0.2,19.3
2023/07/17 05:10:00, 0.1,19.3
2023/07/17 05:20:00, 0.2,19.4
2023/07/17 05:30:00, 0.2,19.3
2023/07/17 05:40:00, 0.2,19.6
2023/07/17 05:50:00, 0.2,19.7
2023/07/17 06:00:00, 0.2,19.6
2023/07/17 06:10:00, 0.2,20.1
2023/07/17 06:20:00, 0.2,20.4
2023/07/17 06:30:00, 0.2,20.8
2023/07/17 06:40:00, 0.2,21.2
2023/07/17 06:50:00, 0.2,21.8
2023/07/17 07:00:00, 0.2,22.5
2023/07/17 07:10:00, 0.2,22.9
2023/07/17 07:20:00, 0.1,23.3
2023/07/17 07:30:00, 0.1,24.3
2023/07/17 07:40:00, 0.2,24.6
2023/07/17 07:50:00, 0.2,25.2
2023/07/17 08:00:00, 0.1,25.7
2023/07/17 08:10:00, 0.1,26.6
2023/07/17 08:20:00, 0.1,27.5
2023/07/17 08:30:00, 0.1,27.8
2023/07/17 08:40:00, 0.1,28.6
2023/07/17 08:50:00, 0.1,29.0
2023/07/17 09:00:00, 0.0,29.3
2023/07/17 09:10:00, 0.0,30.1
2023/07/17 09:20:00, 0.1,30.6
2023/07/17 09:30:00, 0.1,30.5
2023/07/17 09:40:00, 0.0,30.4
2023/07/17 09:50:00, 0.1,31.2
2023/07/17 10:00:00, 0.0,31.0
2023/07/17 10:10:00, 0.0,31.6
2023/07/17 10:20:00, 0.2,32.7
2023/07/17 10:30:00, 0.3,33.2
2023/07/17 10:40:00, 0.4,33.9
2023/07/17 10:50:00, 0.4,34.2
2023/07/17 11:00:00, 0.5,33.8
2023/07/17 11:10:00, 0.5,34.7
2023/07/17 11:20:00, 0.5,33.9
2023/07/17 11:30:00, 0.5,34.6
2023/07/17 11:40:00, 0.5,34.6
2023/07/17 11:50:00, 0.5,35.0
2023/07/17 12:00:00, 0.4,34.2
2023/07/17 12:10:00, 0.4,34.9
2023/07/17 12:20:00, 0.5,35.7
2023/07/17 12:30:00, 0.5,36.1
2023/07/17 12:40:00, 0.4,36.4
2023/07/17 12:50:00, 0.4,36.5
2023/07/17 13:00:00, 0.4,35.9
2023/07/17 13:10:00, 0.4,36.4
2023/07/17 13:20:00, 0.4,36.3
2023/07/17 13:30:00, 0.5,36.8
2023/07/17 13:40:00, 0.5,36.7
2023/07/17 13:50:00, 0.4,36.9
2023/07/17 14:00:00, 0.4,36.7
2023/07/17 14:10:00, 0.4,37.4
2023/07/17 14:20:00, 0.5,38.0
2023/07/17 14:30:00, 0.3,36.4
2023/07/17 14:40:00, 0.4,38.2
2023/07/17 14:50:00, 0.4,38.0
2023/07/17 15:00:00, 0.3,37.6
2023/07/17 15:10:00, 0.3,36.9
2023/07/17 15:20:00, 0.3,35.9
2023/07/17 15:30:00, 0.2,34.3
2023/07/17 15:40:00, 0.2,32.7
2023/07/17 15:50:00, 0.2,34.2
2023/07/17 16:00:00, 0.3,37.7
2023/07/17 16:10:00, 0.3,37.8
2023/07/17 16:20:00, 0.3,38.4
2023/07/17 16:30:00, 0.3,37.6
2023/07/17 16:40:00, 0.3,40.9
2023/07/17 16:50:00, 0.3,40.9
2023/07/17 17:00:00, 0.2,40.8
2023/07/17 17:10:00, 0.2,40.6
2023/07/17 17:20:00, 0.2,40.1
2023/07/17 17:30:00, 0.2,38.5
2023/07/17 17:40:00, 0.2,37.3
2023/07/17 17:50:00, 0.2,38.8
2023/07/17 18:00:00, 0.2,33.3
2023/07/17 18:10:00, 0.2,31.1
2023/07/17 18:20:00, 0.2,30.4
2023/07/17 18:30:00, 0.2,29.3
2023/07/17 18:40:00, 0.0,29.1
2023/07/17 18:50:00, 0.0,28.6
2023/07/17 19:00:00, 0.0,28.3
2023/07/17 19:10:00, 0.0,27.6
2023/07/17 19:20:00, 0.0,27.3
2023/07/17 19:30:00, 0.0,26.1
2023/07/17 19:40:00, 0.0,26.4
2023/07/17 19:50:00, 0.0,26.1
2023/07/17 20:00:00, 0.0,25.8
2023/07/17 20:10:00, 0.0,25.7
2023/07/17 20:20:00, 0.1,25.7
2023/07/17 20:30:00, 0.0,25.4
2023/07/17 20:40:00, 0.0,25.0
2023/07/17 20:50:00, 0.0,24.7
2023/07/17 21:00:00, 0.0,24.9
2023/07/17 21:10:00, 0.0,24.7
2023/07/17 21:20:00, 0.0,24.8
2023/07/17 21:30:00, 0.0,24.5
2023/07/17 21:40:00, 0.0,24.9
2023/07/17 21:50:00, 0.0,24.7
2023/07/17 22:00:00, 0.0,24.7
2023/07/17 22:10:00, 0.0,24.8
2023/07/17 22:20:00, 0.0,24.7
2023/07/17 22:30:00, 0.0,24.4
2023/07/17 22:40:00, 0.0,24.5
2023/07/17 22:50:00, 0.0,24.1
2023/07/17 23:00:00, 0.0,24.2
2023/07/17 23:10:00, 0.1,24.0
2023/07/17 23:20:00, 0.1,24.3
2023/07/17 23:30:00, 0.1,24.0
2023/07/17 23:40:00, 0.1,23.9
2023/07/17 23:50:00, 0.1,23.8
